Washington County, Texas, United States
Lat: 30.22N, Lon: 96.44W
Wx Zone: TXZ197
Local Info
Past Weather Observations for Today

NOTE: This archive is for the closest National Weather Service station to Washington County. Information may differ from the station used for current weather conditions.

Click here for Long-term Archive

Time Weather Temperature Dewpoint Humidity Pressure Winds Precip Visibility
20:35
Partly Cloudy
63°F / 17°C 55°F / 13°C 77% 30.06 in
(1018 mb)
NNW 9.2 mph
(NNW 15 kph)
- 10SM
20:15
Mostly Cloudy
63°F / 17°C 55°F / 13°C 77% 30.06 in
(1018 mb)
NNW 6.9 mph
(NNW 11 kph)
- 10SM
19:55
Partly Cloudy
63°F / 17°C 55°F / 13°C 77% 30.06 in
(1018 mb)
NNW 6.9 mph
(NNW 11 kph)
- 10SM
19:35
Partly Cloudy
63°F / 17°C 55°F / 13°C 77% 30.06 in
(1018 mb)
NNW 8.1 mph
(NNW 13 kph)
- 10SM
19:15
Mostly Cloudy
64°F / 18°C 55°F / 13°C 73% 30.06 in
(1018 mb)
NNW 9.2 mph
(NNW 15 kph)
- 10SM
18:55
Mostly Cloudy
64°F / 18°C 55°F / 13°C 73% 30.06 in
(1018 mb)
NNW 6.9 mph
(NNW 11 kph)
- 10SM
18:35
Overcast
66°F / 19°C 55°F / 13°C 68% 30.06 in
(1018 mb)
N 12.7 mph
(N 20 kph)
- 10SM
18:15
Overcast
66°F / 19°C 55°F / 13°C 68% 30.04 in
(1017 mb)
NNW 11.5 mph
(NNW 19 kph)
- 10SM
17:55
Overcast
66°F / 19°C 57°F / 14°C 73% 30.06 in
(1018 mb)
NNW 12.7 mph
(NNW 20 kph)
- 10SM
17:35
Overcast
68°F / 20°C 57°F / 14°C 69% 30.04 in
(1017 mb)
NNW 11.5 mph
(NNW 19 kph)
- 10SM
17:15
Overcast
68°F / 20°C 57°F / 14°C 69% 30.04 in
(1017 mb)
NNW 11.5 mph
(NNW 19 kph)
- 10SM
16:55
Overcast
68°F / 20°C 59°F / 15°C 73% 30.04 in
(1017 mb)
N 9.2 mph
(N 15 kph)
- 10SM
16:35
Overcast
68°F / 20°C 59°F / 15°C 73% 30.06 in
(1018 mb)
N 8.1 mph
(N 13 kph)
- 10SM
16:15
Overcast
68°F / 20°C 59°F / 15°C 73% 30.06 in
(1018 mb)
N 8.1 mph
(N 13 kph)
- 10SM
15:55
Overcast
68°F / 20°C 59°F / 15°C 73% 30.06 in
(1018 mb)
N 10.4 mph
(N 17 kph)
- 10SM
15:35
Overcast
68°F / 20°C 59°F / 15°C 73% 30.06 in
(1018 mb)
N 11.5 mph
(N 19 kph)
- 10SM
15:15
Overcast
66°F / 19°C 59°F / 15°C 78% 30.06 in
(1018 mb)
N 13.8 mph
(N 22 kph)
- 10SM
14:55
Overcast
68°F / 20°C 59°F / 15°C 73% 30.06 in
(1018 mb)
NNW 12.7 mph
(NNW 20 kph)
- 10SM
14:35
Overcast
66°F / 19°C 59°F / 15°C 78% 30.06 in
(1018 mb)
NNW 13.8 mph
(NNW 22 kph)
- 10SM
14:15
Overcast
68°F / 20°C 59°F / 15°C 73% 30.06 in
(1018 mb)
NNW 12.7 mph
(NNW 20 kph)
- 10SM
13:55
Overcast
68°F / 20°C 59°F / 15°C 73% 30.06 in
(1018 mb)
N 11.5 mph
(N 19 kph)
- 10SM
13:35
Overcast
70°F / 21°C 59°F / 15°C 69% 30.06 in
(1018 mb)
N 16.1 mph
(N 26 kph)
- 10SM
13:15
Overcast
70°F / 21°C 59°F / 15°C 69% 30.06 in
(1018 mb)
NNW 12.7 mph
(NNW 20 kph)
- 10SM
12:55
Overcast
70°F / 21°C 61°F / 16°C 73% 30.04 in
(1017 mb)
N 15 mph
(N 24 kph)
- 10SM
12:35
Overcast
70°F / 21°C 59°F / 15°C 69% 30.06 in
(1018 mb)
N 13.8 mph
(N 22 kph)
- 10SM
12:15
Overcast
70°F / 21°C 59°F / 15°C 69% 30.06 in
(1018 mb)
NNW 17.3 mph
(NNW 28 kph)
- 10SM
11:55
Overcast
70°F / 21°C 59°F / 15°C 69% 30.06 in
(1018 mb)
N 15 mph
(N 24 kph)
- 10SM
11:35
Overcast
68°F / 20°C 57°F / 14°C 69% 30.09 in
(1019 mb)
NNW 15 mph
(NNW 24 kph)
- 10SM
11:15
Overcast
68°F / 20°C 57°F / 14°C 69% 30.09 in
(1019 mb)
N 15 mph
(N 24 kph)
- 10SM
10:55
Overcast
66°F / 19°C 57°F / 14°C 73% 30.09 in
(1019 mb)
N 12.7 mph
(N 20 kph)
- 10SM
10:35
Overcast
68°F / 20°C 57°F / 14°C 69% 30.09 in
(1019 mb)
NNW 15 mph
(NNW 24 kph)
- 10SM
10:15
Overcast
66°F / 19°C 55°F / 13°C 68% 30.09 in
(1019 mb)
N 15 mph
(N 24 kph)
- 10SM
09:55
Overcast
66°F / 19°C 55°F / 13°C 68% 30.09 in
(1019 mb)
N 15 mph
(N 24 kph)
- 10SM
09:35
Overcast
66°F / 19°C 55°F / 13°C 68% 30.06 in
(1018 mb)
NE 8.1 mph
(NE 13 kph)
- 10SM
09:15
Overcast
64°F / 18°C 55°F / 13°C 73% 30.06 in
(1018 mb)
NNE 10.4 mph
(NNE 17 kph)
- 10SM
08:55
Overcast
64°F / 18°C 55°F / 13°C 73% 30.09 in
(1019 mb)
N 11.5 mph
(N 19 kph)
- 10SM
08:35
Overcast
64°F / 18°C 55°F / 13°C 73% 30.06 in
(1018 mb)
N 12.7 mph
(N 20 kph)
- 10SM
08:15
Overcast
64°F / 18°C 55°F / 13°C 73% 30.06 in
(1018 mb)
N 18.4 mph
(N 30 kph)
- 10SM
07:55
Overcast
64°F / 18°C 55°F / 13°C 73% 30.06 in
(1018 mb)
N 16.1 mph
(N 26 kph)
- 10SM
07:35
Overcast
64°F / 18°C 55°F / 13°C 73% 30.06 in
(1018 mb)
NNW 15 mph
(NNW 24 kph)
- 10SM
07:15
Overcast
Thunder Storms
63°F / 17°C 55°F / 13°C 77% 30.04 in
(1017 mb)
N 18.4 mph
(N 30 kph)
- 10SM
06:55
Overcast
63°F / 17°C 55°F / 13°C 77% 30.04 in
(1017 mb)
N 17.3 mph
(N 28 kph)
- 10SM
06:35
Overcast
63°F / 17°C 55°F / 13°C 77% 30.04 in
(1017 mb)
N 19.6 mph
(N 32 kph)
- 10SM
06:15
Overcast
Thunder Storms
64°F / 18°C 55°F / 13°C 73% 30.01 in
(1016 mb)
N 16.1 mph
(N 26 kph)
- 10SM
05:55
Overcast
63°F / 17°C 57°F / 14°C 83% 30.01 in
(1016 mb)
N 13.8 mph
(N 22 kph)
- 10SM
05:35
Overcast
64°F / 18°C 57°F / 14°C 78% 30.01 in
(1016 mb)
NNW 13.8 mph
(NNW 22 kph)
- 10SM
05:15
Overcast
64°F / 18°C 57°F / 14°C 78% 30.01 in
(1016 mb)
NNW 11.5 mph
(NNW 19 kph)
- 10SM
04:55
Overcast
64°F / 18°C 59°F / 15°C 83% 29.98 in
(1015 mb)
NNW 10.4 mph
(NNW 17 kph)
- 10SM
04:35
Overcast
66°F / 19°C 61°F / 16°C 83% 29.98 in
(1015 mb)
NW 10.4 mph
(NW 17 kph)
- 10SM
04:15
Overcast
Light Rain
66°F / 19°C 61°F / 16°C 83% 29.98 in
(1015 mb)
N 9.2 mph
(N 15 kph)
- 10SM
03:55
Overcast
66°F / 19°C 61°F / 16°C 83% 29.98 in
(1015 mb)
N 12.7 mph
(N 20 kph)
- 10SM
03:35
Overcast
66°F / 19°C 59°F / 15°C 78% 29.95 in
(1014 mb)
N 8.1 mph
(N 13 kph)
- 10SM
03:15
Overcast
66°F / 19°C 61°F / 16°C 83% 29.98 in
(1015 mb)
N 6.9 mph
(N 11 kph)
- 10SM
02:55
Overcast
68°F / 20°C 61°F / 16°C 78% 29.98 in
(1015 mb)
N 12.7 mph
(N 20 kph)
- 10SM
02:35
Overcast
68°F / 20°C 61°F / 16°C 78% 29.95 in
(1014 mb)
N 5.8 mph
(N 9 kph)
- 10SM
02:15
Overcast
68°F / 20°C 61°F / 16°C 78% 29.95 in
(1014 mb)
N 10.4 mph
(N 17 kph)
- 10SM
01:55
Overcast
70°F / 21°C 61°F / 16°C 73% 29.98 in
(1015 mb)
N 6.9 mph
(N 11 kph)
- 10SM
01:35
Overcast
70°F / 21°C 61°F / 16°C 73% 29.98 in
(1015 mb)
N 11.5 mph
(N 19 kph)
- 10SM
01:15
Overcast
70°F / 21°C 63°F / 17°C 78% 29.95 in
(1014 mb)
N 10.4 mph
(N 17 kph)
- 10SM
00:55
Overcast
70°F / 21°C 63°F / 17°C 78% 29.95 in
(1014 mb)
N 9.2 mph
(N 15 kph)
- 10SM
00:35
Overcast
70°F / 21°C 63°F / 17°C 78% 29.95 in
(1014 mb)
N 10.4 mph
(N 17 kph)
- 10SM
00:15
Overcast
72°F / 22°C 63°F / 17°C 73% 29.98 in
(1015 mb)
N 6.9 mph
(N 11 kph)
- 10SM
Time Weather Temperature Dewpoint Humidity Pressure Winds Precip Visibility


Weather for websites

WeatherForYou.com, LLC is not responsible for any damages or problems caused by this service. Current weather conditions are obtained from the closest station including government and personal stations which may have varying degrees of accuracy. Weather forecasts are derived from the NOAA NDFD. Like all things, this site belongs to Jesus Christ... He just trusts us to maintain it. If you have any questions or comments email webmaster@weatherforyou.com

Copyright © 2016, WeatherForYou.com LLC. All rights reserved.